Regional Weather Roundup
Issued by NWS

Home | Current Version | Previous Version | Text Only | Print | Product List | Glossary On
Versions: 1 2 3 4 5 6 7 8 9 10 11 12 13 14 15 16 17 18 19 20 21 22 23 24 25 26 27 28 29 30 31 32 33 34 35 36 37 38 39 40 41 42 43 44 45 46 47 48 49 50
000
ASHW40 PHFO 201643
RWRHI

WEATHER ROUNDUP FOR HAWAII
NATIONAL WEATHER SERVICE HONOLULU HI
600 AM HST SAT DEC 20 2014

THIS IS AN AUTOMATED REPORT THAT HAS NOT BEEN QUALITY CONTROLLED.

NOTE..."FAIR" INDICATES FEW OR NO CLOUDS BELOW 12,000 FEET WITH NO
SIGNIFICANT WEATHER AND/OR OBSTRUCTIONS TO VISIBILITY.

* - THESE SITES REPORT LIMITED FIELDS

HIZ001>004-201700-
KAUAI-NIIHAU-

CITY           SKY/WX    TMP DP  RH WIND       PRES   REMARKS
LIHUE APT      PTCLDY    69  64  84 SW5       30.02S
PORT ALLEN*      N/A     70 N/A N/A NE6         N/A
POIPU*           N/A     70 N/A N/A NW2         N/A
PRINCEVILLE*     N/A     72 N/A N/A MISG        N/A
KOKOLE POINT*  NOT AVBL
MOLOAA DAIRY*  NOT AVBL
WAIMEA HTS*      N/A     70  55  60 VRB3        N/A
PUU OPAE*        N/A     63  55  77 CALM        N/A
PUU LUA*       NOT AVBL
MAKAHA RIDGE*  NOT AVBL
$$

HIZ005>011-201700-
OAHU-

CITY           SKY/WX    TMP DP  RH WIND       PRES   REMARKS
HONOLULU       PTCLDY    72  65  78 NE6       29.99S
KALAELOA       CLEAR     66  63  90 CALM      30.02S
KANEOHE MCB    CLOUDY    75  67  76 VRB5      30.02R
WHEELER FIELD  FAIR      67  62  83 SW2       30.02S
BELLOWS*         N/A    N/A N/A N/A E14         N/A
KAHUKU*          N/A    N/A N/A N/A E6G12       N/A
WHEELER*       NOT AVBL
WAIANAE HARBOR NOT AVBL
DILLINGHAM*      N/A     59  59 100 CALM        N/A
KAHUKU TRN*      N/A     72  68  88 E5G13       N/A
KAWAILOA*        N/A     66  61  82 E3G9        N/A
KII*             N/A     75  70  83 E15         N/A
MAKUA RANGE*     N/A     66  59  77 SE6         N/A
OAHU FOREST NW   N/A     64 -13   4 CALM        N/A
SCHOFIELD BRK*   N/A     61  59  94 MISG        N/A
SCHOFIELD S*   NOT AVBL
WAIANAE VLY*     N/A     64  61  88 N3          N/A
KUAOKALA*        N/A     72  61  68 CALM        N/A
HONOULIUULI*   NOT AVBL
MOKUOLOE IS*     N/A    N/A N/A N/A MISG        N/A
PALEHUA*         N/A     79  66  65 CALM        N/A
WAIAWA PHB*    NOT AVBL
$$

HIZ012>013-201700-
MOLOKAI-

CITY           SKY/WX    TMP DP  RH WIND       PRES   REMARKS
MOLOKAI AIRPT  CLEAR     69  63  81 N8        30.02R
KALAUPAPA      NOT AVBL
MAKAPULAPAI*     N/A     75  63  64 E14G24      N/A
MOLOKAI 1*       N/A     61  55  82 SE3G14      N/A
PUU ALII*        N/A     57  56  98 SE3G17      N/A
$$

HIZ016-201700-
KAHOOLAWE-

CITY           SKY/WX    TMP DP  RH WIND       PRES   REMARKS
KAHOOLAWE*       N/A     68 N/A N/A E24G32      N/A
HAKIOAWA*        N/A     68  62  79 MISG      30.43R
HONOKANAIA*      N/A     75  62  62 N8G24     30.01
KANELOA*         N/A     73  64  73 NE20G32   29.21S
KEALIALALO*    NOT AVBL
LUA MAKIKA*    NOT AVBL
$$

HIZ014>015-201700-
LANAI-

CITY           SKY/WX    TMP DP  RH WIND       PRES   REMARKS
LANAI CITY     CLOUDY    64  64 100 E5        30.07R
LANAI 1*         N/A     64  64 100 NE9         N/A
$$

HIZ017>028-201700-
MAUI-

CITY           SKY/WX    TMP DP  RH WIND       PRES   REMARKS
KAHULUI        CLEAR     65  59  81 CALM      30.00R
KAPALUA-W MAUI PTCLDY    73  59  60 NE14      30.01
HANA AIRPORT   MOCLDY    73  66  78 E6        30.06R
HANA*            N/A     73 N/A N/A SE5G12      N/A
HALEAKALA SUMM   N/A     48  -6  10 E29         N/A
MAALAEA BAY*   NOT AVBL
HALEAKALA*     NOT AVBL
KAUPO GAP*       N/A     55  45  67 N3G12       N/A
KULA 1*          N/A     62 -14   4 E5G15       N/A
$$

HIZ023>026-201700-
BIG ISLAND OF HAWAII COAST AND LOWER SLOPES-

CITY           SKY/WX    TMP DP  RH WIND       PRES   REMARKS
KAILUA KONA    CLEAR     71  60  68 E8        29.98R
HILO           CLOUDY    68  61  78 SW9       30.05R
HONOKAA*       NOT AVBL
KAWAIHAE MWT*    N/A     68 N/A N/A NE1         N/A
KAWAIHAE*        N/A     72 N/A N/A NW2         N/A
SOUTH POINT*     N/A     66 N/A N/A NE16G23     N/A
UPOLU AIRPORT*   N/A    N/A N/A N/A E12G23      N/A
KAMUELA*       SUNNY     54  52  94 NE7       30.10R
HAKALAU*         N/A     46   7  19 SW7         N/A
KALOKO-HONOKO*   N/A     70  59  68 E5        29.98R
PALI 2*          N/A     61  55  82 N12G24      N/A
KEALAKOMO*       N/A     81  68  65 NE12G31     N/A
KAUPULEHU*       N/A     63  50  63 SE7         N/A
KAPAPALA*        N/A     57  53  87 N8          N/A
LOWER KAHUKU*    N/A     59  54  82 VRB3G21     N/A
PUHE CS*       NOT AVBL
PUHO CS*         N/A     68  51  53 E3          N/A
PTA KEAMUKU*     N/A     52  43  71 CALM        N/A
WAIKOLOA*        N/A     63  48  59 SE8         N/A
$$

HIZ027>028-201700-
BIG ISLAND OF HAWAII INTERIOR AND SUMMMITS-

CITY           SKY/WX    TMP DP  RH WIND       PRES   REMARKS
BRADSHAW FIELD CLOUDY    50  13  22 S10       30.29S
MK VISITOR CEN NOT AVBL
MAUNA KEA*       N/A     32 -22   9 S45         N/A  WCI  15
MAUNA LOA*       N/A     41 -22   6 MISG        N/A
MAUNA LOA 1*   NOT AVBL
PTA KIPUKA*      N/A    N/A N/A N/A SE3G10      N/A
PTA RANGE 17*    N/A     57   3  11 SE15G23     N/A
PTA WEST*        N/A     46  39  76 SE10        N/A
NENE CABIN*      N/A    N/A N/A N/A NE6G13      N/A
AHUMOA*          N/A     55   2  11 E9          N/A
PTA PORTABLE*  NOT AVBL
PUU MALI*      NOT AVBL
$$

HIC003-201700-
NORTHWEST ISLANDS-

CITY           SKY/WX    TMP DP  RH WIND       PRES   REMARKS
MIDWAY ISLAND  PTCLDY    64  48  55 NW14G25   30.11R
MIDWAY NOS*    NOT AVBL
FRENCH FRIGATE NOT AVBL
$$

PHZ110>124-180-201700-
BUOY REPORTS

STATION/POSITION TIME  TEMP    WIND        PRES    WAVE   SWELL
                       AIR SEA DIR/SP/G            HT/PER HT/DIR
                 (UTC) (F)     (DEG/KT/KT) (MB)    (FT/S) (FT/D)
BUOY 51001       NOT AVBL
BUOY 51101       1600   76 77  150/ 10/ 12 1015.9R   7/11   7/310
BUOY 51100       1600   74     150/ 16       N/A
BUOY 51003       1600   77 79   50/ 14/ 16 1014.9R  10/ 9  10
BUOY 51004       1517   77 78   80/ 19/ 21 1014.3R  12/13  10/340
BARBERS PT BUOY  NOT AVBL
WAIMEA BAY BUOY  1600      77                N/A     6/13   5/320
KAILUA BAY BUOY  1600      77                N/A     7/ 9   3/350
LANAI BUOY       1600      78                N/A     3/13   2/290
BARBERS PT 2     1600      77                N/A     6/13   3/300
PAUWELA MAUI     1600      77                N/A     8/13
HILO             1600      77                N/A     9/13   5/340
KANEOHE BAY BUOY 1600      77                N/A     6/ 8   3/350
HANALEI KAUAI    NOT AVBL
KAHULUI HARBOR   1600   68 76  130/  4/  6 1016.1R
HONOLULU HARBOR  1600   74     130/  1/  3 1016.6R
KILO NALU        NOT AVBL
HILO HARBOR      1600   70     220/  9/ 11 1017.2R
MOKUOLOE         1600   73 74   90/  7/ 10 1016.9R
NAWILIWILI       1600      76                N/A
WHOTS BUOY       NOT AVBL
BUOY 51028       NOT AVBL
$$

......................KEY........................................
  SKY/WX - SKY CONDITIONS/PRESENT WEATHER
  TMP    - TEMPERATURE IN FAHRENHEIT
  DWPT   - DEWPOINT IN FAHRENHEIT
  RH     - RELATIVE HUMIDITY IN PERCENT
  WIND   - DIRECTION AND SPEED /MPH FOR ISLANDS...KTS FOR BUOYS/
  PRES   - MEAN SEA LEVEL PRESSURE IN INCHES OF HG
  VSB    - VISIBILITY IN MILES
  HX     - HEAT INDEX
  WCI    - WIND CHILL INDEX
  VRB    - VARIABLE WIND DIRECTION
  N/A    - NOT AVAILABLE


USA.gov is the U.S. government's official web portal to all federal, state and local government web resources and services.